This is the latest recevied weather packets stored in our database for station/object BAGASKAR. If no packets are shown the sender has not sent any weather packets the latest 10 day(s).
| Time | Temp. | Humidity | Pressure | Rain* | Wind** | Luminosity | Snow |
|---|---|---|---|---|---|---|---|
| 1777836429 | 7.78° C | 100% | 1007.8 hPa | - | - | - | - |
| 1777835229 | 8.33° C | 100% | 1007.8 hPa | - | - | - | - |
| 1777834030 | 8.33° C | 100% | 1007.8 hPa | - | - | - | - |
| 1777832829 | 8.33° C | 100% | 1007.7 hPa | - | - | - | - |
| 1777831629 | 7.78° C | 100% | 1007.7 hPa | - | - | - | - |
| 1777830430 | 7.78° C | 100% | 1007.7 hPa | - | - | - | - |
| 1777829236 | 7.78° C | 100% | 1007.7 hPa | - | - | - | - |
| 1777828029 | 7.78° C | 100% | 1007.6 hPa | - | - | - | - |
| 1777826829 | 7.78° C | 100% | 1007.8 hPa | - | - | - | - |
| 1777825629 | 7.78° C | 100% | 1007.9 hPa | - | - | - | - |
| 1777824429 | 7.78° C | 100% | 1008.1 hPa | - | - | - | - |
| 1777823229 | 7.78° C | 100% | 1008.1 hPa | - | - | - | - |
| 1777822029 | 8.33° C | 100% | 1008.2 hPa | - | - | - | - |
| 1777820829 | 8.33° C | 100% | 1008.1 hPa | - | - | - | - |
| 1777819629 | 8.33° C | 100% | 1008.1 hPa | - | - | - | - |
| 1777818428 | 8.33° C | 100% | 1008.1 hPa | - | - | - | - |
| 1777817229 | 7.78° C | 100% | 1008.3 hPa | - | - | - | - |
| 1777816028 | 8.33° C | 100% | 1008.3 hPa | - | - | - | - |
| 1777814829 | 8.33° C | 100% | 1008.3 hPa | - | - | - | - |
| 1777813628 | 9.44° C | 97% | 1008.3 hPa | - | - | - | - |
| 1777812428 | 8.89° C | 94% | 1008.2 hPa | - | - | - | - |
| 1777811228 | 9.44° C | 94% | 1008.3 hPa | - | - | - | - |
| 1777810028 | 10° C | 90% | 1008.4 hPa | - | - | - | - |
| 1777808828 | 10° C | 87% | 1008.3 hPa | - | - | - | - |
| 1777807628 | 10° C | 86% | 1008.3 hPa | - | - | - | - |
* Rain since midnight (hover to see other rain measurements)
** Current wind speed in m/s (hover to see current wind gust speed)